Weather History for Corpus Christi, TX

Change the Weather History Date:

Tuesday, May 28, 2013

  Actual Average Record
Temperature  
Mean Temperature 86 °F 80 °F  
Max Temperature 92 °F 89 °F 94 °F (1974)
Min Temperature 80 °F 72 °F 62 °F (1901)
Degree Days  
Heating Degree Days 0 0  
Month to date heating degree days 1 0  
Since 1 July heating degree days 529 898  
Cooling Degree Days 21 15  
Month to date cooling degree days 407 366  
Year to date cooling degree days 950 794  
Growing Degree Days 36 (Base 50)    
Moisture  
Dew Point 72 °F    
Average Humidity 66    
Maximum Humidity 79    
Minimum Humidity 52    
Precipitation  
Precipitation 0.00 in 0.10 in 1.92 in (1943)
Month to date precipitation 1.40 2.74  
Year to date precipitation 4.73 9.94  
Snow  
Snow 0.00 in - - ()
Month to date snowfall 0.0  
Since 1 July snowfall 0.0  
Snow Depth 0.00 in    
Sea Level Pressure  
Sea Level Pressure 29.83 in    
Wind  
Wind Speed 25 mph (SE)    
Max Wind Speed 37 mph    
Max Gust Speed 44 mph    
Visibility 10 miles    
Events      
T = Trace of Precipitation, MM = Missing Value Source: NWS Daily Summary

Daily Weather History Graph

Daily Weather History Graph

Search for Another Location

Airport:

Trip Planner

Search our weather history database for the weather conditions in past years. The results will help you decide how hot, cold, wet, or windy it might be!

Date:

Astronomy

May. 28, 2013 Rise Set
Actual Time 6:35 AM CDT 8:19 PM CDT
Civil Twilight 6:09 AM CDT 8:45 PM CDT
Nautical Twilight 5:37 AM CDT 9:17 PM CDT
Astronomical Twilight 5:04 AM CDT 9:50 PM CDT
Moon 11:55 PM CDT (5/28) 10:17 AM CDT (5/28)
Length of Visible Light 14h 36m
Length of Day
13h 44m
Waning Gibbous, 82% of the Moon is Illuminated
May 28
Waning Gibbous
May 31
Last Quarter
Jun 8
New
Jun 16
First Quarter
Jun 23
Full

Hourly Weather History & Observations

Time (CDT) Temp. Heat Index Dew Point Humidity Pressure Visibility Wind Dir Wind Speed Gust Speed Precip Events Conditions
12:51 AM 80.1 °F 84.2 °F 73.0 °F 79% 29.91 in 10.0 mi SE 18.4 mph 27.6 mph N/A   Mostly Cloudy
1:51 AM 80.1 °F 84.2 °F 73.0 °F 79% 29.90 in 10.0 mi SE 21.9 mph - N/A   Mostly Cloudy
2:51 AM 80.1 °F 84.2 °F 73.0 °F 79% 29.87 in 10.0 mi SSE 20.7 mph - N/A   Mostly Cloudy
3:51 AM 80.1 °F 84.2 °F 73.0 °F 79% 29.86 in 10.0 mi SSE 18.4 mph 26.5 mph N/A   Mostly Cloudy
4:51 AM 80.1 °F 84.2 °F 73.0 °F 79% 29.86 in 10.0 mi SSE 17.3 mph 27.6 mph N/A   Overcast
5:51 AM 80.1 °F 84.5 °F 73.9 °F 81% 29.85 in 9.0 mi SSE 21.9 mph 28.8 mph N/A   Overcast
6:51 AM 80.1 °F 84.2 °F 73.0 °F 79% 29.85 in 9.0 mi SSE 18.4 mph - N/A   Mostly Cloudy
7:51 AM 81.0 °F 85.8 °F 73.0 °F 77% 29.85 in 9.0 mi SSE 21.9 mph 27.6 mph N/A   Mostly Cloudy
8:15 AM 82.4 °F 88.2 °F 73.4 °F 74% 29.85 in 10.0 mi SSE 23.0 mph 33.4 mph N/A   Mostly Cloudy
8:51 AM 82.0 °F 87.4 °F 73.0 °F 74% 29.86 in 10.0 mi SSE 19.6 mph 29.9 mph N/A   Mostly Cloudy
9:51 AM 86.0 °F 92.2 °F 72.0 °F 63% 29.86 in 10.0 mi SSE 24.2 mph 31.1 mph N/A   Mostly Cloudy
10:51 AM 87.1 °F 93.6 °F 72.0 °F 61% 29.86 in 10.0 mi SSE 27.6 mph 34.5 mph N/A   Mostly Cloudy
11:51 AM 89.1 °F 96.0 °F 72.0 °F 57% 29.86 in 10.0 mi SSE 25.3 mph 34.5 mph N/A   Mostly Cloudy
12:51 PM 91.0 °F 98.2 °F 72.0 °F 53% 29.85 in 10.0 mi SSE 25.3 mph 36.8 mph N/A   Scattered Clouds
1:51 PM 91.0 °F 98.2 °F 72.0 °F 53% 29.84 in 10.0 mi SE 29.9 mph 36.8 mph N/A   Scattered Clouds
2:51 PM 91.0 °F 98.2 °F 72.0 °F 53% 29.83 in 10.0 mi SE 25.3 mph 35.7 mph N/A   Mostly Cloudy
3:51 PM 90.0 °F 96.9 °F 72.0 °F 55% 29.81 in 10.0 mi SE 31.1 mph 35.7 mph N/A   Mostly Cloudy
4:51 PM 90.0 °F 96.9 °F 72.0 °F 55% 29.79 in 10.0 mi SE 35.7 mph 43.7 mph N/A   Mostly Cloudy
5:33 PM 87.8 °F 93.8 °F 71.6 °F 58% 29.79 in 10.0 mi SE 33.4 mph 40.3 mph N/A   Mostly Cloudy
5:51 PM 87.1 °F 93.6 °F 72.0 °F 61% 29.78 in 10.0 mi SE 32.2 mph 41.4 mph N/A   Mostly Cloudy
6:51 PM 84.9 °F 90.7 °F 72.0 °F 65% 29.78 in 10.0 mi SE 29.9 mph 40.3 mph N/A   Mostly Cloudy
7:03 PM 84.2 °F 89.6 °F 71.6 °F 66% 29.79 in 10.0 mi SE 29.9 mph 38.0 mph N/A   Scattered Clouds
7:51 PM 82.9 °F 88.0 °F 72.0 °F 69% 29.79 in 10.0 mi SE 27.6 mph 36.8 mph N/A   Scattered Clouds
8:51 PM 81.0 °F 85.2 °F 72.0 °F 74% 29.80 in 10.0 mi SE 23.0 mph 32.2 mph N/A   Partly Cloudy
9:13 PM 80.6 °F 85.4 °F 73.4 °F 79% 29.79 in 10.0 mi SE 25.3 mph 35.7 mph N/A   Mostly Cloudy
9:51 PM 81.0 °F 85.2 °F 72.0 °F 74% 29.80 in 10.0 mi SE 26.5 mph - N/A   Mostly Cloudy
10:51 PM 81.0 °F 85.2 °F 72.0 °F 74% 29.81 in 10.0 mi SE 24.2 mph 32.2 mph N/A   Mostly Cloudy
11:51 PM 81.0 °F 85.8 °F 73.0 °F 77% 29.81 in 10.0 mi SE 27.6 mph 34.5 mph N/A   Mostly Cloudy